Wind_Speed
126 125 122 118 115 114 114 110 111 109 106 107 103 101 100 100 101 103 103 102 102 101 101 99 97 97 97 100 98 97 99 100 98 99 102 104 107 111 114 109 101 108 109 110 114 114 119 120 122 123 127 128 131 131
135 132 127 127 128 124 118 116 118 116 118 112 111 113 109 108 110 112 109 107 108 108 109 105 104 102 103 105 109 112 112 110 109 110 113 115 118 121 119 108 106 106 110 113 119 118 125 126 125 126 130 129 131 133
140 138 132 134 136 134 132 127 124 122 123 124 119 118 118 117 117 115 115 117 116 115 115 113 115 111 111 110 114 118 119 119 120 120 119 123 125 122 113 106 105 107 110 116 120 116 122 124 127 128 130 132 134 131
140 139 140 137 135 135 137 138 136 130 131 129 127 125 125 127 124 122 121 119 122 119 120 122 118 124 124 123 123 126 125 125 127 124 129 128 126 117 109 107 105 111 114 115 113 118 123 119 121 122 122 122 121 122
146 143 143 142 141 138 137 136 136 137 137 135 135 136 136 134 131 130 125 130 127 130 130 130 131 132 131 126 131 134 130 134 136 136 132 125 122 115 109 106 105 113 112 110 108 113 115 112 113 116 115 115 118 119
151 146 144 145 144 146 146 146 146 145 143 144 143 139 140 140 139 142 141 135 133 138 142 143 143 137 134 139 142 143 141 141 136 131 127 127 123 118 115 106 110 114 112 114 113 114 115 116 116 115 111 112 116 118
136 143 144 145 147 148 149 153 153 150 154 152 147 147 148 148 148 143 141 141 143 147 150 153 148 141 144 144 143 138 135 136 131 124 123 121 121 120 115 113 111 116 116 116 117 115 111 113 114 114 115 112 113 109
116 120 126 132 140 149 148 152 155 157 160 160 161 160 157 156 152 155 154 150 155 156 150 144 143 144 146 144 132 131 132 125 123 120 118 120 119 120 112 112 112 114 115 113 112 112 113 111 108 107 106 101 94 91
112 113 115 117 118 116 116 119 118 117 126 126 135 133 136 146 153 154 156 156 150 145 137 141 141 137 133 126 124 125 124 124 120 116 117 114 115 115 112 107 108 107 106 105 101 102 102 98 95 89 89 90 87 82
100 105 108 110 109 110 112 115 116 116 118 116 113 109 114 119 121 122 123 123 123 118 119 127 125 121 115 116 114 115 114 112 107 107 110 108 106 108 102 100 95 96 94 91 88 87 87 85 88 86 84 82 77 74
91 94 95 96 98 102 102 103 103 105 108 111 111 110 111 110 109 113 112 101 99 100 101 104 109 108 103 101 102 104 103 101 99 102 102 96 95 96 93 94 93 91 87 86 87 85 84 81 79 77 75 74 71 68
83 84 86 88 92 93 94 96 96 102 104 106 106 101 98 102 102 103 101 101 99 96 95 96 94 93 95 98 98 98 99 98 99 97 93 90 94 92 92 91 87 88 87 84 82 77 74 74 71 67 65 65 65 66
73 77 78 80 84 87 87 89 89 93 99 100 95 91 88 87 88 94 96 96 98 93 90 92 90 91 93 94 95 96 95 95 92 88 85 84 84 85 85 85 82 78 78 74 71 71 67 64 64 62 60 60 59 59
63 66 71 74 75 77 80 85 89 89 90 91 88 84 82 78 81 86 86 82 83 83 82 81 81 81 84 86 87 87 86 84 81 80 77 78 76 76 77 72 73 70 67 65 63 63 63 61 61 60 55 52 51 49
54 57 59 64 70 73 75 78 79 81 85 83 82 74 64 72 81 78 74 74 76 77 77 77 77 78 80 81 82 83 80 77 77 75 73 72 72 67 68 66 62 60 60 59 57 57 57 56 54 51 47 45 43 44
47 47 53 56 59 64 68 72 71 73 74 74 72 60 58 76 75 68 68 71 71 70 71 71 72 74 74 74 75 73 71 72 70 68 66 65 60 64 60 57 55 54 54 53 51 49 48 46 45 44 42 41 40 40
40 46 49 51 52 55 57 58 59 61 62 62 58 58 70 75 67 60 62 64 65 67 67 67 69 70 69 67 67 66 64 63 60 61 57 54 54 54 52 51 49 47 46 45 42 41 40 40 40 39 37 34 32 32
39 39 40 43 46 49 50 51 51 49 43 48 53 58 62 64 57 52 55 60 61 61 61 62 63 62 60 59 60 58 55 53 55 50 48 45 46 45 43 44 42 42 39 38 37 37 35 33 31 29 29 28 26 25
33 35 37 39 40 42 43 44 41 37 35 41 47 49 50 51 48 44 46 50 49 48 50 50 49 52 50 51 48 49 48 43 44 44 38 36 39 37 36 35 35 35 35 32 30 28 27 27 25 23 23 22 21 20
30 31 33 35 36 37 37 36 31 29 29 37 39 43 45 45 38 35 40 36 34 39 39 43 44 43 44 42 38 40 40 37 37 36 30 28 31 30 30 31 31 29 27 25 24 22 20 19 20 19 19 18 16 14
24 26 27 29 30 29 27 27 26 25 27 33 39 41 43 39 38 37 29 24 30 36 38 35 38 36 34 32 30 32 30 28 27 26 25 25 26 26 27 26 25 21 20 18 17 17 17 17 16 15 15 14 13 12
18 20 22 23 23 24 24 25 26 28 33 36 37 38 38 37 31 22 16 23 33 35 29 32 30 28 27 23 23 24 23 21 21 23 23 21 21 22 20 20 16 14 14 15 15 14 14 14 13 13 12 10 10 9
13 15 18 19 20 23 25 27 28 31 32 34 34 32 28 23 16 13 22 30 29 22 29 23 22 22 20 16 17 19 18 18 19 18 18 19 17 14 12 11 11 12 12 11 10 10 11 10 9 7 7 7 7 7
11 12 14 15 17 18 18 19 22 24 24 23 21 18 14 13 15 21 27 22 16 26 21 19 17 13 15 16 15 14 14 13 13 16 15 11 9 6 7 8 10 10 9 9 8 7 7 9 9 7 5 5 5 5
13 12 13 14 16 16 15 15 15 15 13 13 14 15 15 18 21 22 19 16 22 15 15 14 13 14 14 11 10 10 10 11 13 12 7 4 4 5 7 8 7 7 6 5 5 8 9 8 6 3 3 5 5 5
10 11 10 11 13 15 17 19 19 19 18 20 20 19 18 17 17 14 16 19 12 14 12 12 13 12 8 7 7 7 9 9 6 3 0 2 3 4 5 5 5 4 4 5 7 8 7 5 4 5 6 6 7 8
8 9 8 6 6 7 10 12 12 11 12 11 12 13 13 12 14 18 15 12 12 11 11 11 10 9 6 6 7 6 5 3 2 3 3 2 2 2 2 1 2 4 5 6 7 7 7 6 6 6 7 8 9 10
3 5 6 8 9 9 10 10 10 9 8 10 13 16 16 15 13 11 10 11 11 12 11 9 7 5 5 5 5 5 5 5 4 3 1 1 1 2 3 4 5 6 6 6 7 7 7 7 7 7 8 9 10 12
5 4 2 1 3 5 6 8 9 10 9 10 11 11 12 13 12 12 12 11 10 9 9 6 5 5 5 7 6 7 6 5 4 3 4 4 5 5 6 6 5 6 6 7 7 7 8 8 9 9 10 12 13 15
8 7 6 8 6 5 5 5 6 6 6 8 10 11 11 10 10 9 9 9 10 8 7 7 7 8 9 9 8 7 6 6 6 6 7 7 7 6 6 6 6 6 7 6 7 9 10 11 11 12 14 16 16 17
6 4 4 4 7 9 9 8 7 7 8 8 8 8 7 7 8 9 9 8 9 9 8 9 11 12 11 11 9 9 9 8 7 7 7 7 7 7 7 7 7 7 7 8 10 11 13 13 13 14 16 18 19 18
5 6 8 10 10 8 8 8 8 8 9 9 8 7 6 7 7 8 9 10 10 9 10 12 13 13 13 12 12 10 9 8 8 8 8 7 7 7 7 8 8 7 7 10 12 13 15 15 14 14 14 16 17 17
10 10 11 10 6 4 4 5 5 6 6 7 7 7 7 9 11 12 12 11 11 12 14 14 14 14 14 13 12 11 10 9 9 8 8 8 8 9 8 8 8 8 9 12 13 14 15 15 15 14 14 15 14 14
Wind_Direction
270 272 272 271 272 274 274 275 276 276 276 278 279 280 279 280 282 280 287 290 291 292 294 294 294 294 292 295 296 296 294 295 294 296 296 295 297 298 298 293 287 277 281 280 279 281 282 283 282 281 282 285 288 288
268 269 270 271 271 271 272 273 273 275 274 275 277 277 277 278 279 282 283 286 287 289 289 289 291 291 288 289 291 294 294 293 292 292 293 295 296 297 294 289 285 282 284 283 281 282 282 283 283 283 285 287 287 286
262 263 266 269 269 269 270 270 272 273 274 275 276 277 277 278 281 280 280 283 284 285 288 289 289 288 289 286 289 290 289 288 291 291 293 294 294 293 290 285 283 283 282 281 280 282 282 284 286 288 289 290 290 289
259 261 262 264 263 266 267 270 271 272 274 274 274 275 276 278 278 280 280 280 282 283 283 285 285 287 288 289 286 289 288 290 292 289 291 292 292 290 285 283 283 285 282 282 285 284 282 285 287 287 287 288 291 292
260 259 260 262 261 261 262 264 266 269 270 271 273 274 275 277 276 277 277 279 279 281 282 282 284 283 282 284 286 288 287 290 292 292 292 288 289 286 286 284 285 285 285 286 285 285 286 286 284 286 288 289 290 289
258 259 259 261 262 261 263 264 266 265 267 269 268 268 270 272 274 275 274 277 278 280 282 282 285 283 283 285 285 286 286 289 291 289 288 287 286 284 285 286 288 287 287 287 287 286 287 287 288 288 288 289 289 290
255 256 258 258 258 260 262 263 265 264 265 266 267 268 269 271 273 272 272 274 276 279 280 281 282 281 283 283 284 286 287 287 285 284 285 283 282 284 285 286 287 286 286 287 287 288 289 288 288 289 289 289 289 290
255 255 256 257 258 259 261 263 264 264 264 263 264 265 266 266 267 269 271 272 275 277 279 275 276 279 279 282 281 282 283 282 283 283 283 283 285 285 285 285 286 286 288 289 288 289 289 288 288 288 289 289 290 291
251 251 254 256 256 257 257 259 262 263 263 263 263 264 266 265 265 268 269 269 271 271 272 271 274 274 274 277 279 278 278 280 281 283 283 284 285 286 287 287 287 287 287 288 289 289 289 289 289 291 291 292 293 292
250 250 250 253 253 254 256 259 260 260 260 263 263 262 263 264 265 266 267 269 267 269 270 269 269 272 273 273 276 279 280 280 281 281 281 284 285 287 288 289 288 287 289 290 290 288 289 293 294 293 293 292 293 293
246 246 247 250 250 251 253 253 256 257 258 259 261 261 260 260 262 265 267 268 268 268 268 270 269 270 274 277 277 279 279 279 280 280 282 286 286 288 290 288 289 291 291 290 290 292 293 293 293 294 294 295 296 297
246 246 247 249 249 249 250 252 255 257 255 257 258 258 260 260 260 262 264 265 266 267 270 271 272 273 274 276 277 278 278 279 279 281 285 286 286 286 286 288 289 289 289 291 291 293 294 293 293 294 295 296 297 296
247 246 247 247 248 248 248 250 252 254 256 254 255 258 259 262 262 260 260 262 265 267 269 271 272 272 274 274 275 276 277 278 281 284 286 286 284 284 287 288 290 293 290 293 294 293 294 295 295 297 298 299 297 295
246 246 246 247 247 247 248 249 250 253 256 257 256 255 259 263 262 260 260 262 266 268 270 271 271 272 271 272 273 275 277 280 283 285 286 284 287 290 288 293 290 291 293 292 294 295 296 298 297 298 301 299 296 294
245 245 246 245 245 246 247 248 249 251 254 257 260 259 259 262 262 264 266 266 266 266 268 269 269 270 272 273 275 276 279 283 284 284 287 290 286 290 290 289 292 291 293 294 295 296 295 297 297 299 300 296 294 292
246 245 244 244 245 247 248 250 251 253 255 259 263 266 263 261 261 264 265 266 266 267 268 268 269 269 271 274 277 280 282 281 284 287 286 285 291 287 289 291 293 293 292 293 293 294 295 296 298 298 297 297 297 298
245 243 242 243 246 248 250 252 253 254 256 260 262 261 256 259 262 262 263 265 264 265 267 268 269 271 273 277 280 281 282 282 285 282 286 289 286 288 290 291 292 292 293 294 296 297 298 298 298 298 300 300 299 298
246 247 246 245 244 246 248 249 250 253 256 256 254 253 256 261 263 262 262 261 262 264 266 268 270 273 276 277 277 280 283 282 281 285 285 287 286 287 288 290 291 291 293 294 296 296 297 298 297 297 297 298 302 304
246 245 245 246 246 247 249 250 252 251 249 250 252 256 258 261 262 262 261 263 265 267 268 269 272 272 274 275 277 279 280 282 283 283 285 282 282 286 287 289 289 291 293 295 297 297 296 298 300 302 303 305 308 309
243 244 245 246 247 247 248 251 249 244 242 247 250 253 255 258 261 257 257 263 267 265 267 267 268 270 272 278 279 278 280 280 280 283 285 285 283 285 288 288 289 292 296 296 293 296 305 310 311 310 310 311 313 313
243 243 245 247 247 247 247 246 241 237 237 240 243 247 252 254 255 257 269 267 260 259 260 264 267 273 275 276 276 272 273 275 279 284 285 282 282 288 287 289 292 293 292 297 306 312 314 315 317 318 317 316 318 316
233 235 240 239 239 237 235 234 229 228 232 236 241 247 252 259 268 272 262 253 250 255 262 262 270 269 268 269 273 276 277 278 279 281 282 284 285 279 281 282 285 299 311 313 314 318 322 323 322 323 321 318 320 319
237 230 228 229 227 226 226 228 230 232 235 240 248 253 259 264 261 251 241 246 255 256 254 262 260 263 269 274 274 267 273 277 279 282 285 280 277 284 285 300 316 320 314 314 321 321 317 320 329 334 332 332 332 340
224 231 232 230 228 232 235 238 239 241 244 250 257 261 257 245 229 232 243 254 250 249 259 261 264 263 263 260 259 266 273 277 282 278 271 273 280 295 316 325 319 318 319 320 318 324 343 351 353 351 350 351 359 352
212 217 215 208 207 207 214 225 234 235 227 224 221 217 212 215 225 238 244 236 244 252 252 252 254 252 248 251 258 265 273 275 267 263 264 291 326 337 335 326 323 322 324 332 350 2 3 1 9 16 39 43 41 42
217 214 217 225 231 230 232 226 222 222 221 220 221 224 223 222 230 235 230 235 235 235 243 242 235 232 229 236 248 260 260 253 240 238 17 16 355 348 334 317 313 320 343 3 14 10 13 32 59 71 69 73 72 85
225 215 205 215 223 215 223 222 217 221 224 223 217 212 212 209 213 224 229 216 222 227 224 218 214 215 215 229 236 237 212 195 127 84 56 30 350 332 335 15 52 30 31 30 30 39 51 65 76 82 89 92 93 105
306 278 233 207 206 213 224 226 220 211 219 235 221 207 201 211 215 215 214 216 209 204 200 201 200 204 217 215 189 162 137 114 100 100 122 125 93 81 72 67 61 54 53 54 54 56 62 80 89 97 107 112 117 118
169 176 184 255 263 234 209 202 201 204 210 212 214 211 201 197 197 198 200 195 196 195 193 185 186 196 190 172 152 129 119 124 127 143 144 122 103 93 89 77 71 74 74 66 67 79 92 101 104 110 117 120 120 122
206 200 177 166 162 198 207 211 211 206 201 203 204 202 200 192 184 182 182 184 185 181 174 176 178 174 166 149 131 133 141 147 148 145 122 106 101 94 91 93 89 80 82 87 97 105 107 107 108 116 122 122 123 124
200 189 176 198 202 190 182 184 181 179 178 185 193 196 187 182 182 174 167 171 177 175 172 171 167 158 144 139 144 146 151 146 133 122 112 110 103 105 107 106 100 97 99 101 115 112 109 109 113 122 123 124 124 123
229 205 206 219 223 212 192 182 179 173 174 181 185 182 183 184 176 172 177 184 183 175 167 165 158 150 154 154 149 148 144 134 124 123 123 120 117 117 118 114 109 112 111 114 119 119 114 112 117 119 123 127 127 125
310 272 243 239 240 246 213 195 192 188 181 184 191 197 194 187 182 182 181 180 175 168 166 164 158 161 160 154 154 151 143 136 135 141 135 131 124 120 117 116 116 127 126 129 127 124 122 119 118 124 126 124 129 132
Height
10453 10460 10466 10471 10473 10478 10484 10491 10490 10495 10498 10503 10508 10510 10513 10513 10512 10514 10515 10515 10515 10514 10512 10509 10509 10509 10507 10503 10501 10499 10494 10493 10489 10485 10482 10480 10479 10474 10470 10461 10451 10443 10433 10425 10411 10403 10395 10398 10393 10390 10377 10370 10359 10354
10419 10425 10432 10438 10442 10447 10453 10459 10456 10467 10467 10474 10480 10479 10483 10485 10485 10487 10488 10487 10487 10487 10486 10483 10485 10483 10480 10478 10474 10470 10468 10468 10461 10456 10454 10450 10446 10441 10435 10432 10418 10409 10400 10395 10382 10386 10360 10358 10355 10350 10338 10338 10332 10317
10390 10396 10400 10402 10407 10411 10418 10425 10426 10430 10435 10439 10445 10449 10452 10452 10455 10458 10458 10458 10457 10459 10454 10456 10455 10453 10454 10451 10446 10445 10441 10437 10434 10429 10426 10421 10415 10408 10402 10398 10389 10379 10368 10360 10347 10364 10337 10328 10318 10309 10300 10288 10284 10276
10352 10359 10366 10374 10378 10380 10382 10385 10391 10396 10398 10400 10408 10415 10415 10418 10422 10424 10425 10427 10425 10427 10424 10428 10424 10422 10420 10419 10417 10414 10407 10404 10402 10398 10392 10386 10378 10370 10368 10364 10361 10340 10330 10329 10336 10320 10311 10304 10288 10281 10277 10260 10248 10240
10308 10318 10326 10335 10343 10347 10353 10356 10359 10364 10368 10370 10371 10374 10380 10383 10387 10392 10392 10394 10395 10393 10394 10396 10395 10394 10391 10388 10383 10376 10374 10373 10369 10361 10356 10347 10339 10332 10336 10335 10330 10305 10306 10302 10303 10285 10277 10280 10267 10251 10246 10236 10220 10211
10266 10274 10283 10293 10302 10308 10313 10319 10326 10331 10338 10340 10342 10345 10349 10353 10355 10355 10360 10361 10359 10359 10357 10356 10359 10359 10356 10352 10345 10341 10340 10337 10332 10326 10320 10309 10298 10297 10303 10309 10295 10282 10275 10265 10265 10253 10249 10240 10229 10220 10217 10202 10188 10178
10221 10232 10241 10252 10261 10271 10276 10280 10282 10292 10294 10298 10307 10312 10313 10317 10320 10321 10323 10326 10325 10324 10324 10321 10324 10323 10316 10310 10310 10309 10307 10302 10296 10290 10285 10271 10260 10263 10270 10271 10268 10247 10240 10236 10227 10216 10218 10207 10198 10182 10170 10167 10157 10152
10183 10192 10201 10209 10218 10228 10236 10243 10245 10247 10244 10260 10268 10273 10279 10285 10286 10287 10286 10288 10288 10290 10294 10294 10291 10286 10276 10280 10279 10276 10271 10264 10259 10255 10249 10236 10233 10226 10238 10234 10229 10217 10207 10202 10197 10185 10173 10171 10164 10155 10143 10135 10128 10122
10145 10154 10164 10173 10180 10187 10194 10200 10202 10203 10202 10211 10222 10226 10238 10241 10244 10247 10250 10253 10256 10260 10259 10263 10254 10247 10248 10247 10246 10239 10236 10231 10230 10227 10213 10208 10203 10196 10199 10200 10192 10187 10178 10169 10165 10153 10142 10135 10127 10124 10115 10108 10100 10096
10107 10116 10126 10135 10143 10153 10161 10167 10168 10171 10171 10170 10186 10198 10202 10199 10201 10205 10211 10215 10220 10221 10224 10220 10214 10215 10214 10211 10212 10211 10207 10202 10201 10195 10180 10184 10177 10163 10169 10165 10162 10152 10147 10140 10136 10129 10114 10111 10101 10095 10088 10080 10077 10070
10075 10084 10092 10102 10109 10117 10122 10127 10130 10134 10139 10139 10142 10155 10162 10167 10169 10172 10177 10186 10186 10187 10187 10186 10176 10180 10186 10188 10184 10180 10174 10171 10169 10158 10155 10162 10154 10143 10142 10131 10125 10121 10118 10111 10102 10102 10095 10086 10082 10076 10067 10057 10050 10045
10049 10056 10064 10071 10078 10085 10090 10094 10099 10093 10105 10106 10111 10119 10129 10133 10142 10147 10152 10148 10147 10153 10159 10157 10160 10160 10159 10155 10154 10150 10145 10141 10137 10135 10140 10140 10125 10122 10112 10105 10105 10095 10089 10088 10078 10075 10071 10063 10057 10054 10048 10040 10033 10025
10026 10032 10038 10044 10051 10057 10062 10064 10069 10068 10067 10077 10087 10094 10102 10110 10117 10116 10114 10118 10120 10129 10133 10131 10135 10135 10131 10128 10124 10120 10118 10114 10113 10116 10115 10109 10100 10094 10088 10082 10080 10075 10065 10063 10059 10050 10046 10041 10034 10030 10029 10023 10018 10009
10004 10010 10016 10022 10028 10031 10034 10038 10044 10045 10043 10048 10062 10076 10084 10093 10086 10081 10088 10101 10104 10105 10108 10108 10107 10109 10104 10100 10098 10097 10094 10092 10093 10090 10090 10080 10077 10074 10066 10064 10058 10052 10048 10042 10038 10032 10025 10021 10016 10012 10013 10007 10000 9994
9986 9992 9998 10000 10002 10006 10012 10015 10022 10024 10023 10033 10040 10057 10075 10065 10053 10063 10073 10075 10077 10081 10083 10083 10084 10083 10080 10078 10076 10072 10073 10075 10071 10068 10064 10063 10055 10051 10048 10041 10040 10035 10030 10024 10020 10015 10009 10006 10002 9997 9995 9990 9986 9980
9968 9974 9975 9979 9984 9988 9991 9993 10003 10007 10013 10020 10027 10045 10048 10026 10032 10047 10052 10052 10055 10058 10060 10062 10061 10057 10058 10057 10055 10054 10057 10052 10051 10049 10044 10038 10040 10030 10027 10025 10023 10019 10013 10009 10005 10001 9997 9993 9989 9985 9982 9977 9973 9968
9954 9953 9957 9962 9968 9972 9975 9981 9987 9993 9999 10007 10016 10019 10003 10002 10017 10032 10033 10033 10035 10037 10038 10039 10038 10038 10039 10038 10037 10034 10035 10033 10033 10026 10023 10025 10020 10015 10012 10009 10007 10003 9999 9996 9992 9989 9985 9981 9978 9974 9970 9968 9964 9960
9938 9943 9948 9950 9952 9955 9960 9965 9971 9980 9991 9990 9988 9987 9990 9991 10004 10014 10016 10015 10016 10019 10021 10021 10020 10019 10022 10021 10015 10016 10018 10016 10010 10012 10011 10009 10004 10002 10000 9995 9993 9990 9988 9985 9982 9978 9975 9972 9969 9965 9962 9959 9957 9954
9929 9931 9932 9935 9940 9943 9947 9952 9961 9970 9975 9973 9972 9973 9978 9980 9988 9997 9999 9999 10002 10005 10002 10003 10004 10001 10004 10004 10006 10002 10000 10002 9997 9995 9999 9996 9991 9989 9987 9986 9983 9980 9978 9975 9972 9970 9966 9963 9960 9958 9955 9953 9951 9947
9919 9921 9923 9925 9927 9932 9936 9942 9950 9957 9962 9961 9962 9961 9963 9967 9976 9982 9982 9989 9992 9986 9987 9987 9987 9990 9990 9991 9993 9989 9988 9989 9986 9984 9985 9984 9980 9979 9977 9976 9975 9973 9970 9967 9965 9962 9959 9957 9954 9952 9950 9948 9945 9943
9912 9914 9916 9919 9921 9925 9929 9934 9939 9944 9946 9947 9947 9951 9953 9959 9964 9969 9976 9978 9973 9972 9973 9977 9975 9977 9979 9979 9981 9979 9979 9977 9976 9974 9975 9975 9972 9971 9970 9968 9967 9965 9963 9960 9957 9955 9953 9951 9950 9948 9946 9944 9942 9939
9906 9908 9910 9912 9915 9919 9922 9924 9928 9930 9931 9934 9937 9940 9944 9949 9956 9961 9964 9963 9960 9963 9966 9965 9967 9969 9969 9970 9970 9970 9969 9968 9967 9967 9967 9966 9966 9965 9964 9963 9961 9959 9957 9955 9953 9951 9950 9949 9947 9946 9944 9942 9939 9937
9900 9903 9904 9906 9908 9910 9912 9914 9918 9921 9926 9929 9932 9937 9942 9946 9949 9951 9952 9951 9954 9958 9955 9959 9959 9960 9960 9961 9962 9962 9961 9961 9960 9961 9961 9961 9960 9959 9958 9956 9955 9954 9953 9952 9951 9949 9948 9947 9946 9944 9942 9939 9937 9936
9895 9896 9899 9901 9904 9906 9909 9912 9914 9917 9922 9926 9930 9933 9937 9940 9941 9942 9944 9949 9950 9947 9950 9951 9952 9954 9954 9955 9956 9955 9955 9955 9956 9956 9957 9956 9955 9954 9953 9952 9952 9952 9951 9950 9948 9947 9946 9945 9944 9942 9941 9939 9938 9937
9890 9892 9895 9896 9898 9901 9904 9907 9910 9913 9917 9920 9922 9924 9928 9931 9933 9936 9940 9941 9940 9944 9945 9946 9947 9949 9949 9949 9949 9950 9950 9951 9952 9953 9952 9951 9950 9950 9951 9951 9951 9951 9950 9949 9947 9946 9945 9944 9943 9942 9941 9940 9939 9938
9890 9891 9893 9895 9898 9901 9902 9903 9905 9907 9910 9913 9916 9919 9922 9924 9927 9932 9934 9936 9939 9939 9942 9943 9944 9944 9944 9945 9946 9946 9947 9949 9949 9949 9948 9948 9949 9950 9950 9950 9950 9950 9949 9948 9947 9946 9945 9944 9943 9943 9942 9941 9941 9941
9891 9893 9894 9896 9899 9901 9902 9903 9904 9906 9908 9911 9913 9915 9918 9922 9925 9926 9930 9932 9932 9936 9938 9939 9939 9940 9941 9942 9943 9945 9945 9946 9946 9947 9947 9948 9949 9950 9950 9950 9950 9950 9949 9948 9947 9946 9946 9945 9945 9945 9945 9945 9945 9944
9893 9895 9896 9896 9897 9898 9901 9902 9903 9905 9907 9910 9913 9915 9916 9920 9922 9923 9925 9928 9931 9932 9933 9934 9935 9937 9939 9941 9942 9942 9943 9944 9945 9947 9948 9949 9950 9950 9950 9950 9950 9950 9949 9949 9948 9947 9947 9947 9947 9948 9948 9948 9948 9948
9890 9892 9895 9897 9898 9899 9899 9899 9901 9903 9906 9909 9912 9913 9914 9915 9918 9921 9924 9926 9928 9929 9930 9932 9934 9936 9938 9939 9940 9941 9943 9945 9947 9948 9949 9950 9950 9951 9950 9950 9951 9951 9951 9950 9950 9949 9950 9950 9950 9951 9951 9951 9952 9953
9889 9891 9892 9892 9894 9896 9897 9899 9900 9903 9906 9908 9910 9912 9913 9915 9917 9918 9921 9923 9925 9927 9929 9931 9934 9936 9938 9939 9940 9943 9945 9947 9949 9950 9950 9951 9951 9951 9951 9952 9952 9953 9953 9953 9953 9953 9953 9953 9954 9954 9955 9955 9956 9958
9889 9891 9893 9893 9893 9893 9895 9897 9900 9902 9904 9906 9908 9910 9912 9914 9916 9918 9919 9922 9924 9928 9930 9932 9934 9936 9938 9940 9942 9944 9947 9949 9950 9950 9951 9952 9952 9953 9953 9954 9955 9955 9956 9956 9956 9956 9956 9957 9958 9958 9959 9960 9961 9963
9891 9891 9891 9891 9893 9895 9896 9898 9899 9901 9903 9905 9907 9909 9912 9913 9915 9917 9919 9922 9925 9928 9930 9933 9935 9936 9939 9941 9943 9945 9947 9949 9950 9951 9952 9953 9954 9955 9955 9956 9957 9958 9958 9958 9959 9959 9960 9961 9962 9963 9964 9965 9966 9967
9891 9890 9889 9890 9892 9895 9896 9897 9898 9900 9902 9903 9905 9908 9910 9913 9915 9917 9920 9922 9925 9928 9931 9933 9935 9938 9940 9941 9944 9945 9947 9949 9951 9953 9954 9955 9957 9957 9957 9958 9960 9960 9961 9961 9962 9962 9963 9965 9966 9968 9969 9970 9971 9973